QPF
0.00 0.00 0.00 0.00 0.00 0.00 0.00 0.00 0.00 0.00 0.00 0.00 0.00 0.00 0.00 0.00 0.00 0.00 0.00 0.00 0.00 0.00 0.00 0.00 0.00 0.00 0.00 0.00 0.00 0.00 0.00 0.00 0.00 0.00 0.00 0.00 0.00 0.00 0.00 0.00 0.00 0.00 0.00
0.00 0.00 0.00 0.00 0.00 0.00 0.00 0.00 0.00 0.00 0.00 0.00 0.00 0.00 0.00 0.00 0.00 0.00 0.00 0.00 0.00 0.00 0.00 0.00 0.00 0.00 0.00 0.00 0.00 0.00 0.00 0.00 0.00 0.00 0.00 0.00 0.00 0.00 0.00 0.00 0.00 0.00 0.00
0.00 0.00 0.00 0.00 0.00 0.00 0.00 0.00 0.00 0.00 0.00 0.00 0.00 0.00 0.00 0.00 0.00 0.00 0.00 0.00 0.00 0.00 0.00 0.00 0.00 0.00 0.00 0.00 0.00 0.00 0.00 0.00 0.00 0.00 0.00 0.00 0.00 0.00 0.00 0.00 0.00 0.00 0.00
0.00 0.00 0.00 0.00 0.00 0.00 0.00 0.00 0.00 0.00 0.00 0.00 0.00 0.00 0.00 0.00 0.00 0.00 0.00 0.00 0.00 0.00 0.00 0.00 0.00 0.00 0.00 0.00 0.00 0.00 0.00 0.00 0.00 0.00 0.00 0.00 0.00 0.00 0.00 0.00 0.00 0.00 0.00
0.00 0.00 0.00 0.00 0.00 0.00 0.00 0.00 0.00 0.00 0.00 0.00 0.00 0.00 0.00 0.00 0.00 0.00 0.00 0.00 0.00 0.00 0.00 0.00 0.00 0.00 0.00 0.00 0.00 0.00 0.00 0.00 0.00 0.00 0.00 0.00 0.00 0.00 0.00 0.00 0.00 0.00 0.00
0.00 0.00 0.00 0.00 0.00 0.00 0.00 0.00 0.00 0.00 0.00 0.00 0.00 0.00 0.00 0.00 0.00 0.00 0.00 0.00 0.00 0.00 0.00 0.00 0.00 0.00 0.00 0.00 0.00 0.00 0.00 0.00 0.00 0.00 0.00 0.00 0.00 0.00 0.00 0.00 0.00 0.00 0.00
0.01 0.01 0.00 0.01 0.01 0.01 0.01 0.01 0.01 0.01 0.01 0.00 0.00 0.00 0.00 0.00 0.00 0.00 0.00 0.00 0.00 0.00 0.00 0.00 0.00 0.00 0.00 0.00 0.00 0.00 0.00 0.00 0.00 0.00 0.00 0.00 0.00 0.00 0.00 0.00 0.00 0.00 0.00
0.01 0.01 0.01 0.01 0.01 0.02 0.02 0.02 0.02 0.02 0.01 0.02 0.01 0.01 0.01 0.00 0.00 0.00 0.00 0.00 0.00 0.00 0.00 0.00 0.00 0.00 0.00 0.00 0.00 0.01 0.01 0.00 0.00 0.00 0.00 0.00 0.00 0.00 0.00 0.00 0.00 0.00 0.00
0.02 0.01 0.01 0.02 0.02 0.02 0.02 0.02 0.03 0.04 0.04 0.04 0.04 0.03 0.02 0.01 0.01 0.00 0.01 0.01 0.01 0.01 0.00 0.00 0.01 0.01 0.01 0.01 0.01 0.01 0.01 0.01 0.01 0.00 0.00 0.00 0.00 0.00 0.00 0.00 0.00 0.00 0.00
0.01 0.01 0.01 0.02 0.02 0.02 0.02 0.03 0.05 0.06 0.07 0.06 0.06 0.05 0.04 0.03 0.02 0.01 0.01 0.01 0.02 0.02 0.02 0.02 0.02 0.02 0.01 0.01 0.02 0.03 0.03 0.03 0.03 0.02 0.01 0.01 0.01 0.00 0.00 0.00 0.00 0.00 0.00
0.01 0.01 0.01 0.01 0.01 0.01 0.02 0.04 0.06 0.07 0.08 0.08 0.08 0.08 0.08 0.06 0.04 0.04 0.03 0.02 0.03 0.04 0.04 0.04 0.03 0.03 0.03 0.04 0.04 0.05 0.07 0.08 0.08 0.07 0.05 0.03 0.02 0.01 0.01 0.01 0.01 0.01 0.01
0.01 0.01 0.01 0.01 0.02 0.02 0.03 0.04 0.06 0.08 0.10 0.10 0.11 0.10 0.10 0.10 0.09 0.09 0.09 0.06 0.06 0.07 0.07 0.07 0.08 0.08 0.08 0.08 0.09 0.11 0.11 0.12 0.11 0.10 0.08 0.07 0.05 0.03 0.02 0.02 0.01 0.01 0.01
0.01 0.01 0.02 0.02 0.02 0.02 0.03 0.04 0.05 0.06 0.08 0.10 0.12 0.13 0.13 0.14 0.15 0.17 0.19 0.18 0.16 0.14 0.15 0.17 0.18 0.19 0.19 0.19 0.18 0.17 0.15 0.15 0.13 0.12 0.11 0.09 0.06 0.04 0.03 0.02 0.02 0.01 0.01
0.00 0.00 0.01 0.01 0.01 0.01 0.02 0.03 0.04 0.05 0.08 0.09 0.11 0.13 0.14 0.14 0.16 0.18 0.22 0.26 0.26 0.24 0.23 0.24 0.25 0.25 0.25 0.24 0.22 0.21 0.17 0.17 0.15 0.13 0.11 0.10 0.09 0.07 0.05 0.04 0.03 0.02 0.02
0.00 0.00 0.00 0.00 0.01 0.01 0.02 0.02 0.03 0.04 0.06 0.07 0.09 0.11 0.12 0.13 0.15 0.17 0.20 0.24 0.29 0.28 0.25 0.23 0.24 0.25 0.27 0.27 0.27 0.24 0.21 0.22 0.19 0.16 0.13 0.11 0.08 0.06 0.04 0.03 0.02 0.01 0.01
0.00 0.00 0.00 0.00 0.00 0.00 0.01 0.01 0.02 0.03 0.03 0.04 0.05 0.05 0.07 0.08 0.09 0.11 0.14 0.18 0.24 0.28 0.28 0.24 0.22 0.23 0.24 0.24 0.24 0.20 0.18 0.19 0.16 0.13 0.11 0.09 0.06 0.04 0.03 0.02 0.01 0.01 0.01
0.00 0.00 0.00 0.00 0.00 0.00 0.00 0.00 0.01 0.01 0.01 0.02 0.02 0.03 0.03 0.03 0.04 0.05 0.07 0.09 0.12 0.16 0.20 0.19 0.18 0.17 0.17 0.17 0.17 0.15 0.14 0.12 0.10 0.09 0.07 0.05 0.03 0.02 0.01 0.01 0.01 0.00 0.00
0.00 0.00 0.00 0.00 0.00 0.00 0.00 0.00 0.00 0.00 0.01 0.01 0.01 0.02 0.02 0.02 0.03 0.04 0.04 0.05 0.06 0.08 0.10 0.12 0.13 0.12 0.11 0.10 0.10 0.09 0.08 0.07 0.05 0.05 0.04 0.03 0.01 0.01 0.01 0.00 0.00 0.00 0.00
0.00 0.00 0.00 0.00 0.00 0.00 0.00 0.00 0.00 0.00 0.00 0.01 0.01 0.01 0.02 0.02 0.03 0.03 0.04 0.06 0.07 0.09 0.10 0.11 0.11 0.10 0.08 0.08 0.07 0.06 0.04 0.03 0.02 0.02 0.01 0.01 0.01 0.00 0.00 0.00 0.00 0.00 0.00
0.00 0.00 0.00 0.00 0.00 0.00 0.00 0.00 0.00 0.00 0.01 0.01 0.01 0.02 0.03 0.03 0.04 0.04 0.05 0.06 0.06 0.07 0.08 0.08 0.08 0.07 0.06 0.05 0.04 0.03 0.02 0.01 0.01 0.01 0.00 0.00 0.00 0.00 0.00 0.00 0.00 0.00 0.00
0.00 0.00 0.00 0.00 0.00 0.00 0.00 0.00 0.00 0.00 0.01 0.01 0.02 0.02 0.02 0.03 0.04 0.04 0.04 0.05 0.05 0.05 0.05 0.05 0.04 0.04 0.03 0.02 0.02 0.01 0.01 0.01 0.00 0.00 0.00 0.00 0.00 0.00 0.00 0.00 0.00 0.00 0.00
0.00 0.00 0.00 0.00 0.00 0.00 0.00 0.00 0.00 0.00 0.01 0.01 0.01 0.01 0.02 0.02 0.02 0.03 0.03 0.03 0.03 0.03 0.02 0.02 0.02 0.02 0.02 0.01 0.01 0.01 0.01 0.00 0.00 0.00 0.00 0.00 0.00 0.00 0.00 0.00 0.00 0.00 0.00
0.00 0.00 0.00 0.00 0.00 0.00 0.00 0.00 0.00 0.00 0.00 0.00 0.01 0.01 0.02 0.02 0.02 0.02 0.02 0.02 0.02 0.01 0.01 0.01 0.01 0.01 0.01 0.01 0.00 0.00 0.00 0.00 0.00 0.00 0.00 0.00 0.00 0.00 0.00 0.00 0.00 0.00 0.00
0.00 0.00 0.00 0.00 0.00 0.00 0.00 0.00 0.00 0.00 0.00 0.00 0.00 0.00 0.01 0.01 0.01 0.01 0.01 0.01 0.01 0.01 0.01 0.01 0.00 0.00 0.00 0.00 0.00 0.00 0.00 0.00 0.00 0.00 0.00 0.00 0.00 0.00 0.00 0.00 0.00 0.00 0.00
0.00 0.00 0.00 0.00 0.00 0.00 0.00 0.00 0.00 0.00 0.00 0.00 0.00 0.00 0.00 0.01 0.00 0.00 0.00 0.00 0.00 0.00 0.00 0.00 0.00 0.00 0.00 0.00 0.00 0.00 0.00 0.00 0.00 0.00 0.00 0.00 0.00 0.00 0.00 0.00 0.00 0.00 0.00
0.00 0.00 0.00 0.00 0.00 0.00 0.00 0.00 0.00 0.00 0.00 0.00 0.00 0.00 0.00 0.00 0.00 0.00 0.00 0.00 0.00 0.00 0.00 0.00 0.00 0.00 0.00 0.00 0.00 0.00 0.00 0.00 0.00 0.00 0.00 0.00 0.00 0.00 0.00 0.00 0.00 0.00 0.00
MSLP
1020.15 1020.31 1020.44 1020.57 1020.69 1020.83 1020.97 1021.12 1021.26 1021.38 1021.46 1021.51 1021.54 1021.55 1021.55 1021.57 1021.61 1021.68 1021.79 1021.93 1022.09 1022.26 1022.44 1022.62 1022.79 1022.95 1023.09 1023.21 1023.31 1023.37 1023.41 1023.42 1023.42 1023.41 1023.40 1023.40 1023.41 1023.43 1023.43 1023.42 1023.38 1023.32 1023.24
1019.85 1019.99 1020.12 1020.25 1020.38 1020.53 1020.70 1020.87 1021.03 1021.17 1021.29 1021.38 1021.43 1021.46 1021.48 1021.50 1021.54 1021.59 1021.68 1021.80 1021.94 1022.10 1022.28 1022.48 1022.67 1022.86 1023.03 1023.18 1023.30 1023.39 1023.46 1023.50 1023.52 1023.54 1023.57 1023.60 1023.63 1023.66 1023.67 1023.66 1023.62 1023.54 1023.45
1019.42 1019.57 1019.71 1019.86 1020.02 1020.20 1020.40 1020.60 1020.79 1020.97 1021.13 1021.25 1021.34 1021.40 1021.43 1021.46 1021.49 1021.52 1021.58 1021.66 1021.76 1021.90 1022.06 1022.25 1022.44 1022.65 1022.84 1023.02 1023.18 1023.31 1023.41 1023.49 1023.56 1023.62 1023.69 1023.75 1023.81 1023.85 1023.87 1023.86 1023.81 1023.72 1023.61
1018.92 1019.09 1019.26 1019.45 1019.65 1019.87 1020.10 1020.34 1020.57 1020.79 1020.97 1021.13 1021.25 1021.34 1021.40 1021.43 1021.45 1021.46 1021.48 1021.52 1021.58 1021.67 1021.80 1021.95 1022.14 1022.34 1022.55 1022.75 1022.94 1023.11 1023.26 1023.39 1023.51 1023.62 1023.73 1023.83 1023.92 1023.98 1024.00 1023.98 1023.93 1023.83 1023.71
1018.38 1018.57 1018.78 1019.01 1019.26 1019.53 1019.81 1020.08 1020.34 1020.58 1020.80 1020.98 1021.13 1021.25 1021.33 1021.37 1021.39 1021.39 1021.38 1021.37 1021.39 1021.43 1021.51 1021.63 1021.79 1021.97 1022.18 1022.40 1022.61 1022.82 1023.01 1023.20 1023.37 1023.53 1023.69 1023.82 1023.93 1024.01 1024.04 1024.02 1023.96 1023.86 1023.75
1017.83 1018.04 1018.29 1018.56 1018.86 1019.17 1019.47 1019.77 1020.06 1020.32 1020.55 1020.76 1020.93 1021.08 1021.18 1021.24 1021.27 1021.27 1021.24 1021.21 1021.19 1021.19 1021.22 1021.30 1021.43 1021.59 1021.79 1022.01 1022.24 1022.47 1022.70 1022.93 1023.14 1023.35 1023.55 1023.72 1023.85 1023.95 1023.99 1023.98 1023.92 1023.82 1023.71
1017.30 1017.52 1017.78 1018.08 1018.40 1018.74 1019.06 1019.37 1019.67 1019.93 1020.18 1020.40 1020.60 1020.76 1020.90 1020.99 1021.04 1021.05 1021.03 1021.00 1020.96 1020.94 1020.95 1021.00 1021.09 1021.24 1021.42 1021.63 1021.86 1022.11 1022.36 1022.62 1022.87 1023.11 1023.34 1023.54 1023.70 1023.81 1023.87 1023.87 1023.82 1023.74 1023.64
1016.79 1017.00 1017.26 1017.56 1017.89 1018.22 1018.55 1018.86 1019.14 1019.41 1019.65 1019.88 1020.09 1020.29 1020.45 1020.58 1020.67 1020.73 1020.74 1020.73 1020.71 1020.69 1020.70 1020.74 1020.82 1020.95 1021.12 1021.32 1021.54 1021.79 1022.05 1022.32 1022.59 1022.85 1023.11 1023.33 1023.51 1023.64 1023.71 1023.72 1023.69 1023.63 1023.56
1016.34 1016.51 1016.75 1017.03 1017.33 1017.64 1017.95 1018.23 1018.50 1018.74 1018.98 1019.21 1019.44 1019.66 1019.86 1020.04 1020.18 1020.29 1020.35 1020.39 1020.42 1020.44 1020.48 1020.54 1020.63 1020.76 1020.92 1021.11 1021.32 1021.56 1021.81 1022.08 1022.36 1022.63 1022.89 1023.13 1023.32 1023.46 1023.55 1023.59 1023.57 1023.53 1023.48
1016.00 1016.12 1016.30 1016.53 1016.79 1017.05 1017.31 1017.56 1017.79 1018.02 1018.24 1018.47 1018.70 1018.94 1019.18 1019.40 1019.60 1019.77 1019.91 1020.02 1020.11 1020.20 1020.29 1020.40 1020.52 1020.66 1020.83 1021.02 1021.23 1021.45 1021.69 1021.94 1022.21 1022.48 1022.73 1022.97 1023.17 1023.33 1023.43 1023.48 1023.49 1023.47 1023.43
1015.80 1015.86 1015.98 1016.15 1016.34 1016.54 1016.75 1016.95 1017.14 1017.33 1017.54 1017.76 1018.00 1018.25 1018.51 1018.77 1019.01 1019.24 1019.45 1019.63 1019.81 1019.97 1020.13 1020.30 1020.48 1020.66 1020.85 1021.04 1021.24 1021.45 1021.68 1021.91 1022.15 1022.41 1022.65 1022.88 1023.08 1023.24 1023.35 1023.41 1023.43 1023.42 1023.39
1015.81 1015.81 1015.87 1015.96 1016.08 1016.21 1016.35 1016.49 1016.64 1016.81 1016.99 1017.20 1017.43 1017.69 1017.96 1018.24 1018.51 1018.79 1019.05 1019.30 1019.54 1019.78 1020.02 1020.25 1020.49 1020.72 1020.93 1021.15 1021.35 1021.55 1021.75 1021.96 1022.18 1022.41 1022.63 1022.84 1023.03 1023.18 1023.29 1023.35 1023.37 1023.37 1023.35
1016.05 1016.01 1016.00 1016.02 1016.06 1016.13 1016.20 1016.29 1016.40 1016.53 1016.69 1016.88 1017.10 1017.35 1017.62 1017.90 1018.19 1018.48 1018.77 1019.06 1019.35 1019.65 1019.95 1020.25 1020.54 1020.81 1021.06 1021.29 1021.51 1021.70 1021.89 1022.07 1022.26 1022.46 1022.65 1022.83 1022.99 1023.13 1023.22 1023.28 1023.30 1023.29 1023.27
1016.51 1016.43 1016.38 1016.34 1016.32 1016.32 1016.34 1016.38 1016.45 1016.56 1016.70 1016.88 1017.08 1017.31 1017.56 1017.82 1018.09 1018.37 1018.66 1018.96 1019.27 1019.60 1019.94 1020.28 1020.61 1020.92 1021.20 1021.45 1021.67 1021.87 1022.04 1022.20 1022.36 1022.51 1022.67 1022.81 1022.94 1023.05 1023.12 1023.16 1023.17 1023.15 1023.12
1017.14 1017.05 1016.96 1016.87 1016.80 1016.76 1016.73 1016.74 1016.79 1016.88 1017.01 1017.17 1017.36 1017.57 1017.79 1018.02 1018.25 1018.49 1018.75 1019.03 1019.33 1019.66 1020.01 1020.36 1020.71 1021.04 1021.34 1021.60 1021.82 1022.01 1022.17 1022.31 1022.43 1022.55 1022.66 1022.76 1022.85 1022.92 1022.96 1022.97 1022.96 1022.93 1022.89
1017.87 1017.77 1017.66 1017.55 1017.45 1017.37 1017.32 1017.32 1017.36 1017.44 1017.57 1017.73 1017.90 1018.09 1018.28 1018.46 1018.65 1018.84 1019.05 1019.28 1019.54 1019.83 1020.16 1020.50 1020.84 1021.17 1021.47 1021.73 1021.95 1022.13 1022.27 1022.38 1022.47 1022.55 1022.62 1022.67 1022.71 1022.73 1022.73 1022.71 1022.68 1022.64 1022.60
1018.60 1018.51 1018.39 1018.27 1018.16 1018.07 1018.01 1018.01 1018.06 1018.15 1018.29 1018.45 1018.63 1018.80 1018.96 1019.11 1019.24 1019.37 1019.52 1019.69 1019.89 1020.13 1020.40 1020.70 1021.01 1021.32 1021.60 1021.85 1022.05 1022.21 1022.34 1022.43 1022.49 1022.53 1022.55 1022.55 1022.54 1022.51 1022.47 1022.41 1022.36 1022.30 1022.26
1019.26 1019.18 1019.07 1018.95 1018.85 1018.76 1018.72 1018.73 1018.80 1018.92 1019.07 1019.25 1019.43 1019.60 1019.74 1019.86 1019.95 1020.03 1020.11 1020.21 1020.35 1020.52 1020.73 1020.98 1021.24 1021.50 1021.75 1021.97 1022.16 1022.30 1022.40 1022.47 1022.50 1022.50 1022.48 1022.43 1022.37 1022.29 1022.20 1022.11 1022.02 1021.95 1021.90
1019.82 1019.75 1019.66 1019.56 1019.47 1019.41 1019.39 1019.43 1019.53 1019.67 1019.85 1020.05 1020.24 1020.41 1020.54 1020.64 1020.70 1020.74 1020.77 1020.81 1020.88 1020.99 1021.13 1021.32 1021.52 1021.73 1021.94 1022.13 1022.29 1022.41 1022.49 1022.53 1022.53 1022.50 1022.44 1022.35 1022.24 1022.11 1021.97 1021.84 1021.72 1021.62 1021.56
1020.28 1020.23 1020.17 1020.10 1020.04 1020.01 1020.02 1020.09 1020.21 1020.38 1020.58 1020.79 1020.99 1021.17 1021.30 1021.38 1021.42 1021.43 1021.42 1021.42 1021.44 1021.49 1021.57 1021.69 1021.84 1022.01 1022.17 1022.32 1022.45 1022.55 1022.61 1022.63 1022.61 1022.55 1022.46 1022.33 1022.18 1022.00 1021.82 1021.64 1021.48 1021.35 1021.26
1020.69 1020.67 1020.64 1020.60 1020.58 1020.58 1020.62 1020.71 1020.85 1021.03 1021.24 1021.45 1021.66 1021.83 1021.95 1022.03 1022.06 1022.05 1022.02 1021.99 1021.97 1021.97 1022.01 1022.08 1022.18 1022.30 1022.42 1022.54 1022.64 1022.72 1022.76 1022.77 1022.74 1022.66 1022.54 1022.39 1022.20 1021.98 1021.75 1021.53 1021.32 1021.15 1021.03
1021.09 1021.12 1021.12 1021.13 1021.14 1021.17 1021.23 1021.33 1021.47 1021.64 1021.84 1022.04 1022.22 1022.38 1022.49 1022.56 1022.58 1022.56 1022.51 1022.46 1022.42 1022.40 1022.40 1022.44 1022.50 1022.58 1022.67 1022.76 1022.84 1022.90 1022.94 1022.94 1022.90 1022.81 1022.68 1022.50 1022.28 1022.03 1021.76 1021.49 1021.24 1021.02 1020.85
1021.54 1021.60 1021.66 1021.70 1021.74 1021.79 1021.86 1021.95 1022.07 1022.22 1022.37 1022.54 1022.69 1022.81 1022.90 1022.95 1022.95 1022.93 1022.88 1022.82 1022.77 1022.73 1022.71 1022.72 1022.76 1022.81 1022.88 1022.95 1023.02 1023.07 1023.10 1023.10 1023.06 1022.97 1022.83 1022.64 1022.40 1022.12 1021.82 1021.51 1021.21 1020.94 1020.71
1022.03 1022.15 1022.24 1022.32 1022.38 1022.44 1022.49 1022.56 1022.64 1022.74 1022.84 1022.95 1023.05 1023.13 1023.18 1023.20 1023.19 1023.16 1023.11 1023.05 1022.99 1022.94 1022.92 1022.91 1022.93 1022.97 1023.02 1023.08 1023.14 1023.19 1023.22 1023.23 1023.19 1023.10 1022.96 1022.76 1022.51 1022.21 1021.88 1021.54 1021.20 1020.88 1020.59
1022.54 1022.70 1022.84 1022.94 1023.01 1023.05 1023.08 1023.11 1023.14 1023.18 1023.22 1023.26 1023.31 1023.33 1023.35 1023.34 1023.32 1023.27 1023.21 1023.15 1023.09 1023.05 1023.02 1023.00 1023.01 1023.04 1023.09 1023.14 1023.19 1023.24 1023.27 1023.27 1023.24 1023.15 1023.01 1022.81 1022.55 1022.25 1021.90 1021.53 1021.16 1020.80 1020.47
1023.01 1023.21 1023.37 1023.47 1023.54 1023.56 1023.56 1023.55 1023.52 1023.50 1023.48 1023.47 1023.46 1023.45 1023.43 1023.40 1023.36 1023.30 1023.24 1023.18 1023.12 1023.07 1023.04 1023.02 1023.02 1023.04 1023.07 1023.11 1023.16 1023.20 1023.23 1023.23 1023.19 1023.11 1022.97 1022.76 1022.50 1022.19 1021.84 1021.46 1021.06 1020.68 1020.31
Thickness
5694 5692 5689 5687 5685 5683 5681 5678 5677 5675 5672 5671 5670 5668 5667 5665 5663 5661 5659 5656 5654 5651 5648 5645 5642 5639 5637 5634 5632 5629 5627 5625 5623 5621 5620 5618 5617 5615 5614 5612 5611 5611 5610
5692 5689 5687 5684 5682 5680 5678 5675 5673 5671 5669 5667 5666 5664 5663 5662 5660 5657 5655 5652 5650 5647 5644 5641 5638 5635 5632 5629 5626 5623 5621 5619 5616 5615 5613 5611 5610 5609 5607 5606 5605 5604 5604
5690 5687 5685 5682 5680 5677 5675 5672 5669 5667 5665 5663 5662 5660 5659 5657 5655 5653 5650 5647 5645 5642 5639 5636 5633 5630 5627 5624 5621 5618 5615 5612 5610 5608 5606 5604 5603 5602 5600 5599 5598 5597 5597
5689 5686 5683 5680 5678 5675 5672 5668 5665 5662 5660 5658 5656 5655 5653 5652 5650 5647 5645 5642 5639 5636 5633 5631 5628 5625 5621 5618 5615 5612 5609 5606 5603 5601 5599 5598 5596 5595 5593 5592 5591 5591 5590
5686 5683 5681 5679 5675 5672 5669 5666 5663 5659 5656 5653 5651 5649 5647 5646 5644 5642 5639 5636 5633 5630 5628 5625 5622 5619 5616 5612 5609 5606 5603 5599 5596 5594 5592 5590 5588 5587 5586 5585 5584 5584 5583
5683 5680 5678 5676 5672 5669 5666 5662 5659 5656 5652 5649 5646 5643 5641 5639 5637 5635 5633 5630 5627 5624 5621 5618 5615 5612 5609 5606 5603 5600 5596 5593 5589 5586 5584 5582 5580 5579 5578 5577 5577 5576 5575
5679 5677 5675 5672 5669 5666 5663 5659 5655 5651 5646 5642 5637 5634 5633 5632 5630 5628 5625 5623 5621 5618 5615 5611 5608 5605 5602 5598 5595 5592 5589 5586 5582 5579 5576 5574 5572 5571 5570 5569 5568 5568 5568
5675 5673 5671 5668 5665 5662 5659 5655 5651 5646 5642 5637 5631 5624 5622 5622 5623 5622 5619 5616 5614 5611 5608 5605 5601 5598 5595 5591 5588 5584 5581 5578 5575 5571 5568 5566 5564 5563 5561 5560 5560 5559 5559
5670 5668 5666 5664 5661 5658 5655 5652 5648 5642 5637 5632 5628 5621 5614 5616 5614 5613 5611 5609 5606 5602 5600 5597 5593 5589 5586 5583 5579 5575 5572 5568 5565 5563 5560 5557 5555 5553 5552 5551 5550 5550 5550
5663 5662 5660 5658 5656 5653 5650 5647 5644 5639 5633 5627 5621 5618 5615 5612 5605 5604 5601 5598 5595 5592 5590 5586 5583 5579 5576 5573 5570 5566 5561 5558 5555 5552 5550 5547 5545 5544 5542 5541 5540 5540 5540
5655 5654 5653 5652 5649 5647 5645 5642 5639 5634 5630 5624 5618 5612 5606 5601 5598 5593 5593 5588 5582 5580 5577 5573 5571 5568 5565 5562 5559 5555 5550 5546 5543 5540 5538 5536 5534 5532 5531 5530 5529 5528 5528
5647 5646 5645 5644 5642 5640 5638 5635 5632 5628 5624 5619 5614 5608 5601 5595 5591 5585 5583 5578 5571 5566 5561 5558 5555 5552 5550 5547 5545 5541 5537 5534 5530 5527 5525 5522 5521 5520 5519 5518 5517 5516 5516
5637 5636 5636 5635 5634 5632 5630 5628 5625 5621 5617 5612 5608 5602 5596 5591 5584 5578 5573 5567 5558 5551 5545 5541 5538 5536 5535 5532 5530 5526 5522 5519 5516 5514 5511 5509 5508 5507 5505 5504 5504 5504 5503
5626 5626 5626 5625 5624 5623 5622 5619 5616 5613 5608 5604 5599 5594 5588 5581 5574 5568 5561 5553 5544 5537 5529 5527 5522 5520 5518 5516 5514 5511 5507 5505 5502 5498 5496 5495 5494 5493 5492 5491 5490 5490 5490
5615 5615 5615 5614 5613 5612 5611 5609 5606 5602 5598 5594 5588 5583 5576 5569 5562 5555 5548 5541 5534 5528 5523 5515 5508 5504 5502 5501 5499 5496 5494 5492 5489 5485 5483 5481 5480 5480 5478 5479 5478 5477 5478
5604 5603 5603 5602 5601 5600 5598 5596 5593 5590 5586 5580 5574 5568 5561 5553 5546 5540 5533 5526 5520 5515 5510 5500 5492 5488 5486 5486 5484 5482 5478 5476 5474 5472 5470 5468 5468 5467 5467 5467 5466 5466 5467
5591 5591 5590 5589 5587 5586 5584 5582 5579 5576 5571 5565 5559 5553 5545 5538 5531 5524 5517 5510 5504 5499 5494 5484 5478 5473 5472 5471 5469 5467 5464 5463 5461 5459 5458 5457 5455 5455 5455 5454 5454 5454 5454
5578 5577 5576 5575 5573 5571 5569 5567 5564 5560 5556 5550 5544 5538 5531 5524 5517 5509 5502 5495 5489 5484 5480 5473 5465 5462 5460 5458 5456 5454 5452 5450 5448 5448 5446 5444 5444 5444 5443 5443 5442 5442 5442
5564 5563 5562 5561 5558 5556 5554 5552 5548 5544 5539 5534 5528 5523 5516 5510 5503 5495 5489 5482 5477 5472 5468 5463 5456 5452 5449 5446 5444 5442 5440 5439 5438 5436 5434 5433 5433 5432 5431 5430 5430 5429 5428
5551 5550 5548 5546 5544 5542 5540 5537 5533 5529 5524 5519 5514 5509 5503 5497 5490 5484 5478 5471 5465 5460 5456 5452 5447 5443 5440 5437 5434 5432 5430 5428 5426 5425 5423 5422 5420 5419 5418 5417 5416 5415 5414
5538 5536 5535 5533 5532 5529 5526 5523 5520 5515 5510 5505 5500 5496 5491 5485 5480 5474 5468 5461 5456 5451 5446 5442 5438 5434 5430 5427 5424 5422 5419 5416 5414 5413 5411 5409 5408 5407 5405 5403 5402 5400 5400
5524 5523 5522 5521 5520 5517 5514 5511 5506 5501 5497 5492 5487 5482 5478 5473 5469 5465 5460 5454 5449 5443 5437 5433 5428 5424 5420 5417 5415 5412 5407 5403 5400 5401 5398 5397 5396 5394 5392 5390 5388 5387 5386
5511 5510 5509 5508 5506 5504 5502 5498 5494 5488 5484 5479 5475 5471 5467 5463 5457 5452 5449 5444 5440 5436 5432 5426 5420 5416 5412 5408 5405 5400 5396 5391 5388 5388 5385 5383 5382 5379 5378 5376 5374 5373 5372
5499 5497 5496 5494 5493 5492 5489 5485 5481 5476 5472 5468 5464 5460 5456 5452 5449 5443 5439 5434 5430 5426 5423 5418 5413 5408 5405 5401 5396 5391 5386 5382 5378 5375 5372 5367 5367 5365 5364 5362 5360 5359 5357
5488 5486 5484 5482 5480 5479 5477 5474 5470 5465 5461 5457 5454 5450 5446 5443 5441 5436 5430 5425 5421 5417 5414 5410 5406 5401 5397 5392 5388 5381 5375 5369 5363 5361 5358 5352 5351 5349 5348 5348 5346 5343 5342
5477 5475 5473 5471 5469 5468 5467 5464 5460 5456 5451 5447 5444 5441 5438 5435 5432 5428 5422 5416 5412 5407 5404 5400 5395 5390 5385 5381 5376 5370 5363 5355 5348 5345 5344 5338 5334 5330 5330 5331 5329 5327 5326